| time (UTC) | temp F | wind direction | speed MPH | gust MPH | rain 1hr in | rain 24hr in | rain mn in | humidity % | barometer mb |
| 20260415002903 | 54 | 246 | 0.0 | 5.0 | 0.00 | 0.00 | 0.00 | 100 | 1015.5 |
| 20260415002403 | 54 | 246 | 0.0 | 5.0 | 0.00 | 0.00 | 0.00 | 100 | 1015.6 |
| 20260415001903 | 54 | 267 | 0.0 | 5.0 | 0.00 | 0.00 | 0.00 | 100 | 1015.7 |
| 20260415001404 | 54 | 233 | 0.0 | 0.0 | 0.00 | 0.00 | 0.00 | 100 | 1015.9 |
| 20260415000904 | 54 | 233 | 0.0 | 0.0 | 0.00 | 0.00 | 0.00 | 100 | 1016.1 |
| 20260415000403 | 54 | 233 | 0.0 | 6.0 | 0.00 | 0.00 | 0.00 | 99 | 1016.2 |
| 20260414235904 | 54 | 233 | 1.0 | 6.0 | 0.00 | 0.00 | 0.00 | 99 | 1016.2 |
| 20260414234904 | 54 | 7 | 1.0 | 3.0 | 0.00 | 0.00 | 0.00 | 97 | 1016.6 |
| 20260414234403 | 54 | 62 | 0.0 | 0.0 | 0.00 | 0.00 | 0.00 | 97 | 1016.2 |
| 20260414233903 | 54 | 62 | 0.0 | 0.0 | 0.00 | 0.00 | 0.00 | 97 | 1016.2 |
| 20260414232904 | 55 | 62 | 0.0 | 0.0 | 0.00 | 0.00 | 0.00 | 96 | 1016.2 |
| 20260414232404 | 55 | 62 | 0.0 | 0.0 | 0.00 | 0.00 | 0.00 | 96 | 1016.5 |
| 20260414231404 | 55 | 62 | 0.0 | 0.0 | 0.00 | 0.00 | 0.00 | 95 | 1016.7 |
| 20260414230403 | 55 | 62 | 0.0 | 0.0 | 0.00 | 0.00 | 0.00 | 95 | 1017.1 |
| 20260414225904 | 55 | 62 | 0.0 | 0.0 | 0.00 | 0.00 | 0.00 | 95 | 1016.8 |
| 20260414225404 | 55 | 62 | 0.0 | 3.0 | 0.00 | 0.00 | 0.00 | 94 | 1016.6 |
| 20260414224903 | 55 | 62 | 0.0 | 3.0 | 0.00 | 0.00 | 0.00 | 94 | 1016.7 |
| 20260414224403 | 55 | 198 | 0.0 | 2.0 | 0.00 | 0.00 | 0.00 | 94 | 1016.5 |
| 20260414223903 | 55 | 24 | 0.0 | 7.0 | 0.00 | 0.00 | 0.00 | 93 | 1016.8 |
| 20260414223404 | 55 | 24 | 1.0 | 7.0 | 0.00 | 0.00 | 0.00 | 92 | 1017.3 |
| 20260414222903 | 56 | 13 | 5.0 | 7.0 | 0.00 | 0.00 | 0.00 | 91 | 1017.7 |
| 20260414222403 | 57 | 13 | 3.0 | 6.0 | 0.00 | 0.00 | 0.00 | 90 | 1017.1 |
| 20260414221403 | 57 | 45 | 0.0 | 5.0 | 0.00 | 0.00 | 0.00 | 89 | 1016.5 |
| 20260414220903 | 58 | 45 | 1.0 | 8.0 | 0.00 | 0.00 | 0.00 | 89 | 1016.4 |
| 20260414215904 | 58 | 193 | 1.0 | 7.0 | 0.00 | 0.00 | 0.00 | 88 | 1016.2 |
| 20260414214903 | 58 | 24 | 0.0 | 7.0 | 0.00 | 0.00 | 0.00 | 87 | 1016.4 |
| 20260414213904 | 58 | 251 | 0.0 | 8.0 | 0.00 | 0.00 | 0.00 | 86 | 1016.4 |
| 20260414213403 | 58 | 256 | 0.0 | 7.0 | 0.00 | 0.00 | 0.00 | 86 | 1016.4 |
| 20260414212904 | 59 | 195 | 2.0 | 9.0 | 0.00 | 0.00 | 0.00 | 85 | 1016.4 |
| 20260414212405 | 59 | 207 | 3.0 | 10.0 | 0.00 | 0.00 | 0.00 | 84 | 1016.3 |
| 20260414211404 | 59 | 338 | 5.0 | 9.0 | 0.00 | 0.00 | 0.00 | 83 | 1016.1 |
| 20260414210903 | 59 | 87 | 3.0 | 9.0 | 0.00 | 0.00 | 0.00 | 83 | 1016.0 |
| 20260414210404 | 60 | 116 | 3.0 | 9.0 | 0.00 | 0.00 | 0.00 | 83 | 1016.0 |
| 20260414205904 | 60 | 238 | 3.0 | 10.0 | 0.00 | 0.00 | 0.00 | 82 | 1016.0 |
| 20260414205403 | 60 | 63 | 3.0 | 10.0 | 0.00 | 0.00 | 0.00 | 81 | 1016.1 |
| 20260414204903 | 61 | 240 | 3.0 | 13.0 | 0.00 | 0.00 | 0.00 | 81 | 1016.2 |
| 20260414204404 | 61 | 221 | 3.0 | 14.0 | 0.00 | 0.00 | 0.00 | 80 | 1016.4 |
| 20260414203903 | 62 | 243 | 6.0 | 14.0 | 0.00 | 0.00 | 0.00 | 79 | 1016.3 |
| 20260414203403 | 62 | 327 | 3.0 | 9.0 | 0.00 | 0.00 | 0.00 | 78 | 1016.4 |
| 20260414202903 | 63 | 280 | 1.0 | 12.0 | 0.00 | 0.00 | 0.00 | 77 | 1016.7 |
| 20260414202403 | 63 | 240 | 3.0 | 12.0 | 0.00 | 0.00 | 0.00 | 76 | 1016.8 |
| 20260414201904 | 64 | 203 | 3.0 | 10.0 | 0.00 | 0.00 | 0.00 | 76 | 1016.9 |
| 20260414201403 | 64 | 201 | 1.0 | 7.0 | 0.00 | 0.00 | 0.00 | 76 | 1016.8 |
| 20260414200904 | 64 | 251 | 2.0 | 8.0 | 0.00 | 0.00 | 0.00 | 75 | 1016.8 |
| 20260414200404 | 64 | 223 | 2.0 | 9.0 | 0.00 | 0.00 | 0.00 | 74 | 1016.8 |
| 20260414195903 | 64 | 230 | 0.0 | 9.0 | 0.00 | 0.00 | 0.00 | 74 | 1016.8 |
| 20260414195403 | 65 | 202 | 1.0 | 8.0 | 0.00 | 0.00 | 0.00 | 73 | 1016.9 |
| 20260414194904 | 65 | 158 | 1.0 | 8.0 | 0.00 | 0.00 | 0.00 | 73 | 1017.0 |
| 20260414194403 | 65 | 240 | 2.0 | 8.0 | 0.00 | 0.00 | 0.00 | 72 | 1017.1 |
| 20260414193903 | 65 | 228 | 2.0 | 8.0 | 0.00 | 0.00 | 0.00 | 72 | 1017.0 |
| 20260414191403 | 65 | 40 | 1.0 | 7.0 | 0.00 | 0.00 | 0.00 | 72 | 1017.2 |
| 20260414190903 | 65 | 182 | 2.0 | 8.0 | 0.00 | 0.00 | 0.00 | 72 | 1017.4 |
| 20260414190403 | 65 | 234 | 1.0 | 8.0 | 0.00 | 0.00 | 0.00 | 71 | 1017.5 |
| 20260414185904 | 65 | 232 | 3.0 | 9.0 | 0.00 | 0.00 | 0.00 | 70 | 1017.4 |
| 20260414184903 | 66 | 220 | 5.0 | 10.0 | 0.00 | 0.00 | 0.00 | 68 | 1017.7 |
| 20260414184404 | 67 | 142 | 2.0 | 10.0 | 0.00 | 0.00 | 0.00 | 67 | 1018.0 |
| 20260414183903 | 68 | 187 | 3.0 | 10.0 | 0.00 | 0.00 | 0.00 | 66 | 1018.3 |
| 20260414183403 | 68 | 238 | 2.0 | 9.0 | 0.00 | 0.00 | 0.00 | 65 | 1018.3 |
| 20260414182403 | 69 | 226 | 5.0 | 13.0 | 0.00 | 0.00 | 0.00 | 65 | 1018.4 |
| 20260414181903 | 69 | 219 | 1.0 | 12.0 | 0.00 | 0.00 | 0.00 | 65 | 1018.4 |
| 20260414181403 | 69 | 240 | 3.0 | 12.0 | 0.00 | 0.00 | 0.00 | 66 | 1018.5 |
| 20260414180903 | 69 | 72 | 2.0 | 9.0 | 0.00 | 0.00 | 0.00 | 65 | 1018.2 |
| 20260414180403 | 69 | 224 | 2.0 | 9.0 | 0.00 | 0.00 | 0.00 | 65 | 1018.2 |
| 20260414175904 | 70 | 334 | 1.0 | 8.0 | 0.00 | 0.00 | 0.00 | 65 | 1018.4 |
| 20260414175403 | 70 | 217 | 3.0 | 9.0 | 0.00 | 0.00 | 0.00 | 65 | 1018.4 |
| 20260414174903 | 70 | 256 | 5.0 | 9.0 | 0.00 | 0.00 | 0.00 | 65 | 1018.6 |
| 20260414174403 | 70 | 85 | 1.0 | 10.0 | 0.00 | 0.00 | 0.00 | 65 | 1018.9 |
| 20260414173903 | 70 | 249 | 5.0 | 10.0 | 0.00 | 0.00 | 0.00 | 65 | 1018.8 |
| 20260414173405 | 70 | 230 | 4.0 | 9.0 | 0.00 | 0.00 | 0.00 | 64 | 1018.8 |
| 20260414172903 | 70 | 56 | 3.0 | 10.0 | 0.00 | 0.00 | 0.00 | 65 | 1018.9 |
| 20260414172404 | 70 | 261 | 5.0 | 12.0 | 0.00 | 0.00 | 0.00 | 65 | 1019.2 |
| 20260414171903 | 70 | 224 | 3.0 | 12.0 | 0.00 | 0.00 | 0.00 | 65 | 1019.2 |
| 20260414170903 | 70 | 237 | 5.0 | 12.0 | 0.00 | 0.00 | 0.00 | 65 | 1019.1 |
| 20260414165904 | 70 | 215 | 3.0 | 12.0 | 0.00 | 0.00 | 0.00 | 65 | 1018.9 |
| 20260414165403 | 70 | 232 | 6.0 | 12.0 | 0.00 | 0.00 | 0.00 | 66 | 1018.9 |
| 20260414164903 | 70 | 134 | 3.0 | 13.0 | 0.00 | 0.00 | 0.00 | 66 | 1018.8 |
| 20260414164403 | 70 | 191 | 6.0 | 13.0 | 0.00 | 0.00 | 0.00 | 66 | 1018.8 |
| 20260414162903 | 70 | 171 | 2.0 | 12.0 | 0.00 | 0.00 | 0.00 | 68 | 1019.0 |
| 20260414162404 | 70 | 188 | 4.0 | 12.0 | 0.00 | 0.00 | 0.00 | 69 | 1019.1 |
| 20260414161903 | 69 | 198 | 1.0 | 10.0 | 0.00 | 0.00 | 0.00 | 69 | 1019.1 |
| 20260414161403 | 69 | 238 | 6.0 | 9.0 | 0.00 | 0.00 | 0.00 | 70 | 1019.1 |
| 20260414160904 | 69 | 235 | 1.0 | 12.0 | 0.00 | 0.00 | 0.00 | 71 | 1019.2 |
| 20260414160404 | 69 | 167 | 3.0 | 12.0 | 0.00 | 0.00 | 0.00 | 72 | 1019.4 |
| 20260414155903 | 69 | 187 | 2.0 | 10.0 | 0.00 | 0.00 | 0.00 | 74 | 1019.2 |
| 20260414155404 | 68 | 255 | 4.0 | 10.0 | 0.00 | 0.00 | 0.00 | 74 | 1019.3 |
| 20260414154904 | 68 | 273 | 3.0 | 6.0 | 0.00 | 0.00 | 0.00 | 76 | 1019.5 |
| 20260414154404 | 68 | 145 | 0.0 | 7.0 | 0.00 | 0.00 | 0.00 | 77 | 1019.5 |
| 20260414153903 | 67 | 106 | 2.0 | 7.0 | 0.00 | 0.00 | 0.00 | 79 | 1019.7 |
| 20260414152903 | 66 | 227 | 3.0 | 7.0 | 0.00 | 0.00 | 0.00 | 83 | 1019.7 |
| 20260414151903 | 64 | 217 | 3.0 | 8.0 | 0.00 | 0.00 | 0.00 | 87 | 1019.8 |
| 20260414151403 | 63 | 170 | 3.0 | 8.0 | 0.00 | 0.00 | 0.00 | 87 | 1019.8 |
| 20260414150903 | 63 | 110 | 1.0 | 5.0 | 0.00 | 0.00 | 0.00 | 87 | 1019.9 |
| 20260414150404 | 63 | 25 | 0.0 | 0.0 | 0.00 | 0.00 | 0.00 | 86 | 1019.8 |
| 20260414145903 | 63 | 25 | 0.0 | 0.0 | 0.00 | 0.00 | 0.00 | 87 | 1019.8 |
| 20260414145403 | 63 | 25 | 0.0 | 0.0 | 0.00 | 0.00 | 0.00 | 89 | 1019.8 |
| 20260414144403 | 62 | 25 | 0.0 | 0.0 | 0.00 | 0.00 | 0.00 | 91 | 1019.9 |
| 20260414143903 | 62 | 25 | 0.0 | 2.0 | 0.00 | 0.00 | 0.00 | 93 | 1020.0 |
| 20260414142404 | 60 | 10 | 0.0 | 5.0 | 0.00 | 0.00 | 0.00 | 98 | 1019.9 |
| 20260414141903 | 60 | 10 | 0.0 | 0.0 | 0.00 | 0.00 | 0.00 | 100 | 1019.9 |
| 20260414141405 | 59 | 10 | 0.0 | 0.0 | 0.00 | 0.00 | 0.00 | 100 | 1019.9 |
| 20260414140903 | 59 | 10 | 0.0 | 7.0 | 0.00 | 0.00 | 0.00 | 100 | 1019.7 |
| 20260414135903 | 58 | 36 | 1.0 | 5.0 | 0.00 | 0.00 | 0.00 | 100 | 1019.7 |
| 20260414135404 | 58 | 16 | 0.0 | 3.0 | 0.00 | 0.00 | 0.00 | 100 | 1019.6 |
| 20260414134904 | 57 | 205 | 0.0 | 2.0 | 0.00 | 0.00 | 0.00 | 100 | 1019.6 |
| 20260414134403 | 57 | 205 | 0.0 | 2.0 | 0.00 | 0.00 | 0.00 | 100 | 1019.5 |
| 20260414133905 | 56 | 71 | 0.0 | 2.0 | 0.00 | 0.00 | 0.00 | 100 | 1019.5 |
| 20260414133403 | 56 | 42 | 0.0 | 0.0 | 0.00 | 0.00 | 0.00 | 100 | 1019.6 |
| 20260414132905 | 55 | 42 | 0.0 | 0.0 | 0.00 | 0.00 | 0.00 | 100 | 1019.5 |
| 20260414132403 | 54 | 42 | 0.0 | 0.0 | 0.00 | 0.00 | 0.00 | 100 | 1019.6 |
| 20260414131903 | 54 | 42 | 0.0 | 0.0 | 0.00 | 0.00 | 0.00 | 100 | 1019.6 |
| 20260414131403 | 53 | 42 | 0.0 | 0.0 | 0.00 | 0.00 | 0.00 | 100 | 1019.4 |
| 20260414130404 | 52 | 42 | 0.0 | 0.0 | 0.00 | 0.00 | 0.00 | 100 | 1019.6 |
| 20260414125903 | 52 | 42 | 0.0 | 0.0 | 0.00 | 0.00 | 0.00 | 100 | 1019.5 |
| 20260414125403 | 51 | 42 | 0.0 | 0.0 | 0.00 | 0.00 | 0.00 | 100 | 1019.4 |
| 20260414124904 | 51 | 42 | 0.0 | 0.0 | 0.00 | 0.00 | 0.00 | 100 | 1019.4 |
| 20260414124404 | 51 | 42 | 0.0 | 0.0 | 0.00 | 0.00 | 0.00 | 100 | 1019.4 |
| 20260414123903 | 50 | 42 | 0.0 | 0.0 | 0.00 | 0.00 | 0.00 | 100 | 1019.4 |
| 20260414123404 | 50 | 42 | 0.0 | 0.0 | 0.00 | 0.00 | 0.00 | 100 | 1019.5 |
| 20260414122905 | 50 | 42 | 0.0 | 0.0 | 0.00 | 0.00 | 0.00 | 100 | 1019.4 |
| 20260414122405 | 49 | 42 | 0.0 | 0.0 | 0.00 | 0.00 | 0.00 | 100 | 1019.4 |
| 20260414121904 | 49 | 42 | 0.0 | 0.0 | 0.00 | 0.00 | 0.00 | 100 | 1019.2 |
| 20260414121403 | 48 | 42 | 0.0 | 0.0 | 0.00 | 0.00 | 0.00 | 100 | 1019.1 |
| 20260414120903 | 48 | 42 | 0.0 | 0.0 | 0.00 | 0.00 | 0.00 | 100 | 1018.9 |
| 20260414120404 | 47 | 42 | 0.0 | 0.0 | 0.00 | 0.00 | 0.00 | 100 | 1018.8 |
| 20260414115403 | 47 | 42 | 0.0 | 0.0 | 0.00 | 0.00 | 0.00 | 100 | 1018.5 |
| 20260414114903 | 47 | 42 | 0.0 | 0.0 | 0.00 | 0.00 | 0.00 | 100 | 1018.5 |
| 20260414114403 | 46 | 42 | 0.0 | 0.0 | 0.00 | 0.00 | 0.00 | 100 | 1018.5 |
| 20260414113904 | 46 | 42 | 0.0 | 0.0 | 0.00 | 0.00 | 0.00 | 100 | 1018.5 |
| 20260414113403 | 46 | 42 | 0.0 | 0.0 | 0.00 | 0.00 | 0.00 | 100 | 1018.4 |
| 20260414112904 | 46 | 42 | 0.0 | 0.0 | 0.00 | 0.00 | 0.00 | 100 | 1018.6 |
| 20260414112404 | 46 | 42 | 0.0 | 0.0 | 0.00 | 0.00 | 0.00 | 100 | 1018.5 |
| 20260414111903 | 45 | 42 | 0.0 | 0.0 | 0.00 | 0.00 | 0.00 | 100 | 1018.6 |
| 20260414111403 | 45 | 42 | 0.0 | 0.0 | 0.00 | 0.00 | 0.00 | 100 | 1018.5 |
| 20260414110903 | 45 | 42 | 0.0 | 0.0 | 0.00 | 0.00 | 0.00 | 100 | 1018.6 |
| 20260414110403 | 45 | 42 | 0.0 | 0.0 | 0.00 | 0.00 | 0.00 | 100 | 1018.6 |
| 20260414105403 | 44 | 42 | 0.0 | 0.0 | 0.00 | 0.00 | 0.00 | 100 | 1018.5 |
| 20260414104904 | 44 | 42 | 0.0 | 0.0 | 0.00 | 0.00 | 0.00 | 100 | 1018.4 |
| 20260414104403 | 44 | 42 | 0.0 | 0.0 | 0.00 | 0.00 | 0.00 | 100 | 1018.4 |
| 20260414103403 | 44 | 42 | 0.0 | 0.0 | 0.00 | 0.00 | 0.00 | 100 | 1018.4 |
| 20260414102904 | 44 | 42 | 0.0 | 0.0 | 0.00 | 0.00 | 0.00 | 100 | 1018.4 |
| 20260414102404 | 44 | 42 | 0.0 | 0.0 | 0.00 | 0.00 | 0.00 | 100 | 1018.3 |
| 20260414101903 | 44 | 42 | 0.0 | 0.0 | 0.00 | 0.00 | 0.00 | 100 | 1018.1 |
| 20260414101404 | 44 | 42 | 0.0 | 0.0 | 0.00 | 0.00 | 0.00 | 100 | 1018.0 |
| 20260414100904 | 44 | 42 | 0.0 | 0.0 | 0.00 | 0.00 | 0.00 | 100 | 1017.7 |
| 20260414100403 | 44 | 42 | 0.0 | 0.0 | 0.00 | 0.00 | 0.00 | 100 | 1017.5 |
| 20260414095904 | 44 | 42 | 0.0 | 0.0 | 0.00 | 0.00 | 0.00 | 100 | 1017.5 |
| 20260414095403 | 44 | 42 | 0.0 | 0.0 | 0.00 | 0.00 | 0.00 | 100 | 1017.4 |
| 20260414094905 | 44 | 42 | 0.0 | 0.0 | 0.00 | 0.00 | 0.00 | 100 | 1017.4 |
| 20260414093903 | 44 | 42 | 0.0 | 0.0 | 0.00 | 0.00 | 0.00 | 100 | 1017.2 |
| 20260414093403 | 44 | 42 | 0.0 | 0.0 | 0.00 | 0.00 | 0.00 | 100 | 1017.1 |
| 20260414092903 | 44 | 42 | 0.0 | 0.0 | 0.00 | 0.00 | 0.00 | 100 | 1017.2 |
| 20260414091903 | 44 | 42 | 0.0 | 0.0 | 0.00 | 0.00 | 0.00 | 100 | 1017.1 |
| 20260414090903 | 44 | 42 | 0.0 | 0.0 | 0.00 | 0.00 | 0.00 | 100 | 1017.3 |
| 20260414090403 | 44 | 42 | 0.0 | 0.0 | 0.00 | 0.00 | 0.00 | 100 | 1017.2 |
| 20260414085904 | 44 | 42 | 0.0 | 0.0 | 0.00 | 0.00 | 0.00 | 100 | 1017.1 |
| 20260414085403 | 44 | 42 | 0.0 | 0.0 | 0.00 | 0.00 | 0.00 | 100 | 1017.2 |
| 20260414084904 | 44 | 42 | 0.0 | 0.0 | 0.00 | 0.00 | 0.00 | 100 | 1017.2 |
| 20260414084404 | 44 | 42 | 0.0 | 0.0 | 0.00 | 0.00 | 0.00 | 100 | 1017.0 |
| 20260414083904 | 44 | 42 | 0.0 | 0.0 | 0.00 | 0.00 | 0.00 | 100 | 1017.1 |
| 20260414083403 | 45 | 42 | 0.0 | 0.0 | 0.00 | 0.00 | 0.00 | 100 | 1017.0 |
| 20260414082903 | 45 | 42 | 0.0 | 0.0 | 0.00 | 0.00 | 0.00 | 100 | 1016.9 |
| 20260414082403 | 45 | 42 | 0.0 | 0.0 | 0.00 | 0.00 | 0.00 | 100 | 1016.7 |
| 20260414081903 | 45 | 42 | 0.0 | 0.0 | 0.00 | 0.00 | 0.00 | 100 | 1016.6 |
| 20260414081403 | 45 | 42 | 0.0 | 0.0 | 0.00 | 0.00 | 0.00 | 100 | 1016.5 |
| 20260414080403 | 45 | 42 | 0.0 | 0.0 | 0.00 | 0.00 | 0.00 | 100 | 1016.4 |
| 20260414075904 | 45 | 42 | 0.0 | 0.0 | 0.00 | 0.00 | 0.00 | 100 | 1016.5 |
| 20260414075403 | 45 | 42 | 0.0 | 0.0 | 0.00 | 0.00 | 0.00 | 100 | 1016.5 |
| 20260414074904 | 45 | 42 | 0.0 | 0.0 | 0.00 | 0.00 | 0.00 | 100 | 1016.6 |
| 20260414073903 | 45 | 42 | 0.0 | 0.0 | 0.00 | 0.00 | 0.00 | 100 | 1016.6 |
| 20260414072405 | 45 | 42 | 0.0 | 0.0 | 0.00 | 0.00 | 0.00 | 100 | 1016.5 |
| 20260414071903 | 45 | 42 | 0.0 | 0.0 | 0.00 | 0.00 | 0.00 | 100 | 1016.5 |
| 20260414071403 | 45 | 42 | 0.0 | 0.0 | 0.00 | 0.00 | 0.00 | 100 | 1016.3 |
| 20260414070904 | 45 | 42 | 0.0 | 0.0 | 0.00 | 0.00 | 0.00 | 100 | 1016.1 |
| 20260414065905 | 46 | 42 | 0.0 | 0.0 | 0.00 | 0.00 | 0.00 | 100 | 1015.9 |
| 20260414065403 | 46 | 42 | 0.0 | 0.0 | 0.00 | 0.00 | 0.00 | 100 | 1015.9 |
| 20260414064905 | 45 | 42 | 0.0 | 0.0 | 0.00 | 0.00 | 0.00 | 100 | 1015.9 |
| 20260414064403 | 45 | 42 | 0.0 | 6.0 | 0.00 | 0.00 | 0.00 | 100 | 1015.8 |
| 20260414063903 | 45 | 42 | 0.0 | 6.0 | 0.00 | 0.00 | 0.00 | 100 | 1016.0 |
| 20260414063404 | 45 | 184 | 0.0 | 5.0 | 0.00 | 0.00 | 0.00 | 100 | 1015.9 |
| 20260414062903 | 46 | 167 | 0.0 | 0.0 | 0.00 | 0.00 | 0.00 | 100 | 1015.9 |
| 20260414062404 | 46 | 167 | 0.0 | 0.0 | 0.00 | 0.00 | 0.00 | 100 | 1015.9 |
| 20260414061904 | 46 | 167 | 0.0 | 0.0 | 0.00 | 0.00 | 0.00 | 100 | 1016.0 |
| 20260414061403 | 46 | 167 | 0.0 | 0.0 | 0.00 | 0.00 | 0.00 | 100 | 1015.9 |
| 20260414060904 | 46 | 167 | 0.0 | 0.0 | 0.00 | 0.00 | 0.00 | 100 | 1015.9 |
| 20260414055904 | 46 | 167 | 0.0 | 0.0 | 0.00 | 0.00 | 0.00 | 100 | 1015.8 |
| 20260414055404 | 47 | 167 | 0.0 | 0.0 | 0.00 | 0.00 | 0.00 | 100 | 1015.9 |
| 20260414054403 | 47 | 167 | 0.0 | 0.0 | 0.00 | 0.00 | 0.00 | 100 | 1015.8 |
| 20260414053904 | 46 | 167 | 0.0 | 0.0 | 0.00 | 0.00 | 0.00 | 100 | 1015.8 |
| 20260414053403 | 45 | 167 | 0.0 | 0.0 | 0.00 | 0.00 | 0.00 | 100 | 1015.9 |
| 20260414052403 | 45 | 167 | 0.0 | 0.0 | 0.00 | 0.00 | 0.00 | 100 | 1015.7 |
| 20260414051903 | 45 | 167 | 0.0 | 0.0 | 0.00 | 0.00 | 0.00 | 100 | 1015.7 |
| 20260414051403 | 45 | 167 | 0.0 | 0.0 | 0.00 | 0.00 | 0.00 | 100 | 1015.6 |
| 20260414050903 | 45 | 167 | 0.0 | 0.0 | 0.00 | 0.00 | 0.00 | 100 | 1015.6 |
| 20260414050404 | 45 | 167 | 0.0 | 0.0 | 0.00 | 0.00 | 0.00 | 100 | 1015.6 |
| 20260414045904 | 45 | 167 | 0.0 | 0.0 | 0.00 | 0.00 | 0.00 | 100 | 1015.5 |
| 20260414045404 | 45 | 167 | 0.0 | 0.0 | 0.00 | 0.00 | 0.00 | 100 | 1015.3 |
| 20260414044403 | 45 | 167 | 0.0 | 0.0 | 0.00 | 0.00 | 0.00 | 100 | 1015.2 |
| 20260414043903 | 45 | 167 | 0.0 | 0.0 | 0.00 | 0.00 | 0.00 | 100 | 1015.1 |
| 20260414042403 | 45 | 167 | 0.0 | 0.0 | 0.00 | 0.00 | 0.00 | 100 | 1014.9 |
| 20260414041404 | 45 | 167 | 0.0 | 0.0 | 0.00 | 0.00 | 0.00 | 100 | 1015.0 |
| 20260414040904 | 45 | 167 | 0.0 | 0.0 | 0.00 | 0.00 | 0.00 | 100 | 1014.8 |
| 20260414040404 | 46 | 167 | 0.0 | 0.0 | 0.00 | 0.00 | 0.00 | 100 | 1014.7 |
| 20260414035904 | 46 | 167 | 0.0 | 0.0 | 0.00 | 0.00 | 0.00 | 100 | 1014.6 |
| 20260414035404 | 46 | 167 | 0.0 | 0.0 | 0.00 | 0.00 | 0.00 | 100 | 1014.6 |
| 20260414034903 | 46 | 167 | 0.0 | 0.0 | 0.00 | 0.00 | 0.00 | 100 | 1014.6 |
| 20260414034403 | 46 | 167 | 0.0 | 0.0 | 0.00 | 0.00 | 0.00 | 100 | 1014.3 |
| 20260414033903 | 46 | 167 | 0.0 | 0.0 | 0.00 | 0.00 | 0.00 | 100 | 1014.4 |
| 20260414033403 | 46 | 167 | 0.0 | 0.0 | 0.00 | 0.00 | 0.00 | 100 | 1014.5 |
| 20260414032904 | 46 | 167 | 0.0 | 0.0 | 0.00 | 0.00 | 0.00 | 100 | 1014.5 |
| 20260414032404 | 46 | 167 | 0.0 | 0.0 | 0.00 | 0.00 | 0.00 | 100 | 1014.7 |
| 20260414031904 | 46 | 167 | 0.0 | 0.0 | 0.00 | 0.00 | 0.00 | 100 | 1014.7 |
| 20260414031404 | 46 | 167 | 0.0 | 0.0 | 0.00 | 0.00 | 0.00 | 100 | 1014.6 |
| 20260414030903 | 46 | 167 | 0.0 | 0.0 | 0.00 | 0.00 | 0.00 | 100 | 1014.5 |
| 20260414030404 | 46 | 167 | 0.0 | 0.0 | 0.00 | 0.00 | 0.00 | 100 | 1014.5 |
| 20260414025904 | 46 | 167 | 0.0 | 0.0 | 0.00 | 0.00 | 0.00 | 100 | 1014.4 |
| 20260414025403 | 46 | 167 | 0.0 | 0.0 | 0.00 | 0.00 | 0.00 | 100 | 1014.4 |
| 20260414024904 | 46 | 167 | 0.0 | 0.0 | 0.00 | 0.00 | 0.00 | 100 | 1014.4 |
| 20260414024404 | 46 | 167 | 0.0 | 0.0 | 0.00 | 0.00 | 0.00 | 100 | 1014.4 |
| 20260414023403 | 47 | 167 | 0.0 | 0.0 | 0.00 | 0.00 | 0.00 | 100 | 1014.2 |
| 20260414022403 | 47 | 167 | 0.0 | 0.0 | 0.00 | 0.00 | 0.00 | 100 | 1014.2 |
| 20260414021903 | 47 | 167 | 0.0 | 0.0 | 0.00 | 0.00 | 0.00 | 100 | 1014.1 |
| 20260414021404 | 47 | 167 | 0.0 | 0.0 | 0.00 | 0.00 | 0.00 | 100 | 1014.1 |
| 20260414020904 | 47 | 167 | 0.0 | 0.0 | 0.00 | 0.00 | 0.00 | 100 | 1014.2 |
| 20260414020404 | 47 | 167 | 0.0 | 0.0 | 0.00 | 0.00 | 0.00 | 100 | 1014.2 |
| 20260414015904 | 47 | 167 | 0.0 | 0.0 | 0.00 | 0.00 | 0.00 | 100 | 1014.2 |
| 20260414015404 | 47 | 167 | 0.0 | 0.0 | 0.00 | 0.00 | 0.00 | 100 | 1014.1 |
| 20260414014904 | 47 | 167 | 0.0 | 0.0 | 0.00 | 0.00 | 0.00 | 100 | 1014.0 |
| 20260414013403 | 47 | 167 | 0.0 | 0.0 | 0.00 | 0.00 | 0.00 | 100 | 1014.0 |
| 20260414012903 | 47 | 167 | 0.0 | 0.0 | 0.00 | 0.00 | 0.00 | 100 | 1014.0 |
| 20260414012404 | 47 | 167 | 0.0 | 0.0 | 0.00 | 0.00 | 0.00 | 100 | 1013.8 |
| 20260414011903 | 48 | 167 | 0.0 | 0.0 | 0.00 | 0.00 | 0.00 | 100 | 1013.7 |
| 20260414011404 | 48 | 167 | 0.0 | 0.0 | 0.00 | 0.00 | 0.00 | 100 | 1013.6 |
| 20260414010904 | 48 | 167 | 0.0 | 0.0 | 0.00 | 0.00 | 0.00 | 100 | 1013.7 |
| 20260414010404 | 48 | 167 | 0.0 | 0.0 | 0.00 | 0.00 | 0.00 | 100 | 1013.6 |
| 20260414005904 | 48 | 167 | 0.0 | 0.0 | 0.00 | 0.00 | 0.00 | 100 | 1013.6 |
| 20260414005404 | 48 | 167 | 0.0 | 0.0 | 0.00 | 0.00 | 0.00 | 100 | 1013.6 |
| 20260414004403 | 48 | 167 | 0.0 | 1.0 | 0.00 | 0.00 | 0.00 | 100 | 1013.6 |
| 20260414003904 | 48 | 167 | 0.0 | 5.0 | 0.00 | 0.00 | 0.00 | 100 | 1013.4 |
| 20260414003404 | 48 | 167 | 0.0 | 5.0 | 0.00 | 0.00 | 0.00 | 100 | 1013.4 |